Regional Weather Roundup
Issued by NWS

Home | Current Version | Previous Version | Graphics & Text | Print | Product List | Glossary On
Versions: 1 2 3 4 5 6 7 8 9 10 11 12 13 14 15 16 17 18 19 20 21 22 23 24 25 26 27
000
ASUS45 KCYS 301210
RWRWY

WYOMING REGIONAL WEATHER ROUNDUP
NATIONAL WEATHER SERVICE CHEYENNE WY
600 AM MDT MON MAY 30 2016

NOTE:  "FAIR" INDICATES FEW OR NO CLOUDS BELOW 12,000 FEET
WITH NO SIGNIFICANT WEATHER AND/OR OBSTRUCTIONS TO VISIBILITY.

WYZ001-301300-
YELLOWSTONE NATIONAL PARK

CITY           SKY/WX    TMP DP  RH WIND       PRES   REMARKS
LK YELLOWSTONE   N/A     36  34  92 CALM      30.18R
6HR MIN TEMP:  36; 6HR MAX TEMP:  42; 6HR PCP:  0.03;

W YELLOWSTONE  NOT AVBL

$$
WYZ002>013-054>058-071-098>099-301300-
NORTHERN WYOMING

CITY           SKY/WX    TMP DP  RH WIND       PRES   REMARKS
JACKSON        FAIR      41  37  87 SE5       30.13S
CODY           CLOUDY    54  39  58 N7        30.03R
GREYBULL       MOCLDY    61  40  45 N12       29.95R
6HR MIN TEMP:  59; 6HR MAX TEMP:  65;

WORLAND        MOCLDY    58  40  51 NW9       29.97R
6HR MIN TEMP:  52; 6HR MAX TEMP:  66;

SHERIDAN       FAIR      53  45  74 N13G24    29.97R
6HR MIN TEMP:  50; 6HR MAX TEMP:  57;

BUFFALO          N/A     54  41  61 NW25G38   29.95S
6HR MIN TEMP:  54; 6HR MAX TEMP:  66;

GILLETTE       FAIR      55  41  59 SW17      29.89F
6HR MIN TEMP:  48; 6HR MAX TEMP:  57;

HULETT         CLOUDY    59  45  58 W6        29.91R
NEWCASTLE      FAIR      52  41  66 S6        29.96R

$$
WYZ014>020-022>026-101>103-301300-
CENTRAL WYOMING

CITY           SKY/WX    TMP DP  RH WIND       PRES   REMARKS
BIG PINEY      FAIR      37  35  92 N8        30.17R WCI  31
6HR MIN TEMP:  37; 6HR MAX TEMP:  46;

PINEDALE       FAIR      36  36 100 NE6       30.18R WCI  31
DUBOIS         PTSUNNY   43  32  65 NW10      30.12S
LANDER         CLOUDY    54  37  52 N6        30.03R
6HR MIN TEMP:  53; 6HR MAX TEMP:  59;

RIVERTON       CLOUDY    55  35  47 NW10      30.03R
6HR MIN TEMP:  51; 6HR MAX TEMP:  56;

CASPER         FAIR      53  37  54 S12       30.02R
6HR MIN TEMP:  46; 6HR MAX TEMP:  60;

DOUGLAS          N/A    N/A N/A N/A MISG      30.00S

$$
WYZ021-027>030-104>119-301300-
SOUTHERN WYOMING

CITY           SKY/WX    TMP DP  RH WIND       PRES   REMARKS
EVANSTON       FAIR      44  39  82 SW8       30.19S
6HR MIN TEMP:  41; 6HR MAX TEMP:  47; 6HR PCP:  0.03;

KEMMERER         N/A     41  37  87 CALM      30.20S
FORT BRIDGER   SUNNY     45  41  87 W7        30.20S
ROCK SPRINGS   FAIR      45  39  79 SW13      30.16R
6HR MIN TEMP:  41; 6HR MAX TEMP:  51;

DIXON          PTSUNNY   40  37  88 CALM      30.20R
RAWLINS        CLOUDY    46  36  68 SW7       30.14S
6HR MIN TEMP:  41; 6HR MAX TEMP:  51;

SARATOGA       FAIR      41  34  75 W3        30.16F
LARAMIE        FAIR      39  34  82 SE6       30.14S WCI  35
6HR MIN TEMP:  38; 6HR MAX TEMP:  44;

CHEYENNE       FAIR      46  38  73 W6        30.08S
6HR MIN TEMP:  43; 6HR MAX TEMP:  51;

TORRINGTON     FAIR      48  44  86 CALM      29.98F
6HR MIN TEMP:  46; 6HR MAX TEMP:  54;

PINE BLUFFS    FAIR      41  39  93 SW3       30.05S

$$




USA.gov is the U.S. government's official web portal to all federal, state and local government web resources and services.